TimeCST,TemperatureF,Dew PointF,Humidity,Sea Level PressureIn,VisibilityMPH,Wind Direction,Wind SpeedMPH,Gust SpeedMPH,PrecipitationIn,Events,Conditions,WindDirDegrees,DateUTC
12:54 AM,18.0,9.0,68,30.46,10.0,NW,13.8,21.9,N/A,,Overcast,310,2013-11-23 06:54:00
1:31 AM,17.6,8.6,68,30.41,5.0,NNW,13.8,20.7,0.00,Snow,Light Snow,340,2013-11-23 07:31:00
1:42 AM,15.8,8.6,73,30.41,9.0,NNW,15.0,26.5,0.00,,Overcast,330,2013-11-23 07:42:00
1:54 AM,15.1,8.1,74,30.50,9.0,NNW,12.7,23.0,0.00,Snow,Light Snow,330,2013-11-23 07:54:00
2:54 AM,12.9,1.0,59,30.53,10.0,NNW,12.7,25.3,N/A,,Clear,330,2013-11-23 08:54:00
3:54 AM,10.9,1.9,67,30.54,10.0,NW,10.4,-,N/A,,Clear,320,2013-11-23 09:54:00
4:54 AM,10.0,1.9,70,30.57,10.0,NW,13.8,19.6,N/A,,Clear,310,2013-11-23 10:54:00
5:54 AM,10.0,1.9,70,30.59,10.0,NNW,9.2,-,N/A,,Scattered Clouds,330,2013-11-23 11:54:00
6:54 AM,9.0,1.9,73,30.61,10.0,NW,10.4,-,N/A,,Clear,320,2013-11-23 12:54:00
7:54 AM,10.0,3.0,73,30.63,10.0,NW,10.4,-,N/A,,Overcast,310,2013-11-23 13:54:00
8:27 AM,10.4,1.4,67,30.57,10.0,NW,10.4,-,N/A,,Overcast,320,2013-11-23 14:27:00
8:40 AM,8.6,1.4,73,30.58,10.0,NW,8.1,17.3,N/A,,Scattered Clouds,320,2013-11-23 14:40:00
8:54 AM,10.9,1.9,67,30.66,10.0,NW,12.7,18.4,N/A,,Clear,310,2013-11-23 14:54:00
9:54 AM,12.9,-0.9,54,30.69,10.0,North,13.8,26.5,N/A,,Mostly Cloudy,350,2013-11-23 15:54:00
10:29 AM,12.2,5.0,73,30.61,8.0,NW,11.5,23.0,N/A,,Overcast,310,2013-11-23 16:29:00
10:54 AM,12.9,5.0,71,30.70,3.0,NW,15.0,21.9,0.00,Snow,Light Snow,320,2013-11-23 16:54:00
11:54 AM,15.1,-0.9,49,30.69,10.0,NNW,8.1,21.9,0.00,,Scattered Clouds,340,2013-11-23 17:54:00
12:54 PM,14.0,1.0,56,30.69,10.0,NW,13.8,25.3,N/A,,Overcast,320,2013-11-23 18:54:00
1:54 PM,15.1,-0.0,51,30.69,10.0,North,12.7,20.7,N/A,,Partly Cloudy,350,2013-11-23 19:54:00
2:54 PM,15.1,-2.0,47,30.70,10.0,NW,13.8,-,N/A,,Scattered Clouds,310,2013-11-23 20:54:00
3:54 PM,14.0,-2.9,47,30.71,10.0,NNW,12.7,-,N/A,,Clear,330,2013-11-23 21:54:00
4:54 PM,12.0,-2.0,53,30.73,10.0,NW,6.9,-,N/A,,Clear,320,2013-11-23 22:54:00
5:54 PM,10.9,-2.0,56,30.73,10.0,NW,4.6,-,N/A,,Clear,320,2013-11-23 23:54:00
6:54 PM,10.0,-2.0,58,30.73,10.0,NW,6.9,-,N/A,,Clear,310,2013-11-24 00:54:00
7:54 PM,9.0,-2.0,61,30.73,10.0,NW,6.9,-,N/A,,Clear,310,2013-11-24 01:54:00
8:54 PM,7.0,-0.9,70,30.72,10.0,WNW,5.8,-,N/A,,Clear,290,2013-11-24 02:54:00
9:54 PM,6.1,-2.0,69,30.71,10.0,WNW,5.8,-,N/A,,Clear,290,2013-11-24 03:54:00
10:54 PM,6.1,-2.0,69,30.71,10.0,WNW,8.1,-,N/A,,Clear,300,2013-11-24 04:54:00
11:54 PM,5.0,-2.0,73,30.71,10.0,WNW,5.8,-,N/A,,Clear,300,2013-11-24 05:54:00